Retour au catalogue

STARLINK-3057

ActifCommunicationsVLEO
NORAD 49139·PAYLOAD·🇺🇸 United States

Lancé Sep 14, 2021 depuis Vandenberg Space Force Base

Loading…

Prochains Passages (prochaines 24 heures)

TLE

FraisSource: CelesTrak SupGP

Époque: Sep 14, 2026, 21:39 UTC

1 49139C 21082K   26257.90256944  .00356730  00000+0  54572-2 0  2575
2 49139  69.9998 125.0960 0003221 277.1291 115.6752 15.54016738    16

Suivez STARLINK-3057 en temps réel avec AllMySat

Download on the App Store